STARLINK-35618, 66423

Orbit data source: Space-Track

STARLINK-35618, 66423 is a payload satellite owned by SpaceX/Seattle (US) in LEO that was launched on Tue, 11 Nov 2025 UTC via an FALCON 9 launch vehicle from the Air Force Eastern Test Range (AFETR). Payload-class satellites include a variety of spacecraft equipped with specific instruments for various scientific and technological missions. These include communications satellites like Starlink; space stations such as the ISS; scientific satellites like the Hubble; Earth observation satellites from companies like Planet Labs, Umbra, and HawkEye 360; GPS; miniature CubeSats for education and research; and military/defense satellites.

Loading next visibility...
Identifier
66423, 2025-259B
Orbit
LEO
Country
Flag of USUS
Related business
Manufacturer
SpaceX/Seattle
Mission
Operational Commercial Communications
Bus & Motor
STARLINK V2MO, Unknown motor
Mass
575 kg wet, ~530 kg dry
Launch date (UTC)
2025-11-11 (7 months ago)
Launch vehicle
FALCON 9
Launch site
Air Force Eastern Test Range (AFETR)
Object type
Payload
Rocket body
Debris
Shape & HBR
Box + 2 Pan, 17.7 m
Radar Cross Section
36.964 m², Large (>1 m²)

Expand to show TLE details & history
Last TLE update: 14 hours ago

TLE from 14 hours ago
0 STARLINK-35618
1 66423U 25259B   26150.12128030  .00022813  00000-0  83553-3 0  9998
2 66423  42.9991 174.6059 0001124 228.8799 131.1956 15.27597735 31946
Epoch: 2026-05-30T02:54Z
TLE epoch observation values (Epoch: 2026-05-30T02:54:38.617Z)
Latitude
-0.00002°
Longitude
-116.69688°
Altitude
483.279 km
Speed
7.625 km/s
True Right ascension
11h 38m 25s
True Declination
0° 00' 00"
Sunlit
Object was in daylight at epoch
Visualization orbit readout
Latitude
Unknown
Longitude
Unknown
Altitude
Unknown
Speed
Unknown
Apparent Right ascension
Unknown
Apparent Declination
Unknown
Sunlit
N/A
Visualization observer readout
Local Sidereal Time
02:07:31
Azimuth
Unknown
Elevation
Unknown
Doppler factor
Unknown
Orbital elements
Apogee altitude
485.713 km
Perigee altitude
484.17 km
Semi-major axis
6,863.078 km
Eccentricity
0.00011
Inclination
42.9991°
RAAN
174.6059°
Arg. of periapsis
228.8799°
True anomaly
131.20529°
Mean anomaly
131.1956°
Eccentric anomaly
131.20045°
Mean motion
3.81737 °/min
Orbital period
94.31 mins
BSTAR
0.00083553
Loading maneuver chart data...
Computing Atmospheric mass density...
Loading historical data...
Loading historical data...
Loading historical data...
Loading historical data...
Loading historical data...
Loading historical data...
Loading historical data...

Documentation

Showing up to 5 results
|